Home > Weather > Ajaccio > Past weeks

Flag for France Past Weather in Ajaccio, Corsica, France — Yesterday and Last 2 Weeks

Now
63 °F

Clear.


Feels Like: 63 °F
Forecast: 62 / 79 °F
Wind: 6 mph from Northeast

Location: Ajaccio Airport

Current Time: Jun 28, 2016 at 12:22:24 AM

Latest Report: Jun 28, 2016 at 12:00 AM


Visibility: 10 mi

Pressure: 30.04 "Hg

Humidity: 83%

Dew Point: 57 °F

Location of AjaccioLocation

Past Weather in Ajaccio — Graph

°F

Ajaccio Temperature Yesterday

Maximum temperature yesterday: 77 °F (at 12:30 PM)
Minimum temperature yesterday: 61 °F (at 4:00 AM)
Average temperature yesterday: 69 °F

High & Low Weather Summary for the Past Weeks

 TemperatureHumidityPressure
High84 °F (Jun 15, 6:00 PM)94% (Jun 16, 9:00 PM)30.21 "Hg (Jun 16, 9:00 PM)
Low55 °F (Jun 20, 4:30 AM)31% (Jun 15, 6:00 PM)29.56 "Hg (Jun 16, 7:00 AM)
Average70 °F71%29.95 "Hg
* Reported Jun 12 11:00 PM — Jun 27 11:00 PM, Ajaccio, Weather by CustomWeather, © 2016

Note: Actual official high and low records may vary slightly from our data, if they occured in-between our weather recording intervals... More about our weather records

Advertising

Ajaccio Weather History for the Previous 24 Hours

Scroll right to see more
 ConditionsComfort  
Time TempWeatherWind HumidityBarometerVisibility
11:00 PM
Mon, Jun 27
64 °FClear.5 mph78%30.04 "Hg10 mi
10:30 PM66 °FClear.2 mph73%30.04 "Hg10 mi
10:00 PM66 °FSunny.3 mph73%30.04 "Hg10 mi
9:30 PM68 °FSunny.1 mph73%30.04 "Hg10 mi
9:00 PM70 °FSunny.2 mph69%30.04 "Hg10 mi
8:30 PM72 °FPassing clouds.5 mph65%30.04 "HgN/A
8:00 PM72 °FPassing clouds.5 mph65%30.01 "HgN/A
7:30 PM73 °FPassing clouds.6 mph61%30.04 "HgN/A
7:00 PM73 °FSunny.8 mph61%30.01 "Hg10 mi
6:30 PM73 °FSunny.10 mph61%30.04 "Hg10 mi
6:00 PM75 °FPassing clouds.9 mph57%30.01 "HgN/A
5:30 PM75 °FPassing clouds.9 mph54%30.04 "HgN/A
5:00 PM75 °FPassing clouds.12 mph57%30.04 "HgN/A
4:30 PM75 °FPassing clouds.10 mph57%30.04 "HgN/A
4:00 PM75 °FPassing clouds.12 mph57%30.04 "HgN/A
3:00 PM75 °FPassing clouds.12 mph57%30.04 "HgN/A
2:00 PM77 °FPassing clouds.13 mph54%30.04 "HgN/A
1:30 PM75 °FPassing clouds.13 mph57%30.04 "HgN/A
1:00 PM75 °FPassing clouds.13 mph57%30.04 "HgN/A
12:30 PM77 °FPassing clouds.13 mph54%30.04 "HgN/A
11:40 AM75 °FPassing clouds.14 mph57%30.04 "HgN/A
11:00 AM75 °FPassing clouds.14 mph61%30.04 "HgN/A
10:30 AM75 °FPassing clouds.14 mph61%30.04 "HgN/A
9:30 AM75 °FPassing clouds.9 mph61%30.04 "HgN/A
9:00 AM75 °FPassing clouds.3 mph50%30.04 "HgN/A
8:00 AM68 °FSunny.2 mph64%30.04 "Hg10 mi
7:30 AM64 °FPassing clouds.5 mph73%30.04 "HgN/A
7:00 AM63 °FSunny.6 mph77%30.04 "Hg10 mi
6:38 AM63 °FClear.8 mph77%30.04 "Hg10 mi
6:00 AM61 °FClear.7 mph83%30.04 "Hg10 mi
5:30 AM61 °FClear.7 mph83%30.04 "Hg10 mi
5:00 AM61 °FClear.6 mph83%30.04 "Hg10 mi
4:30 AM61 °FClear.6 mph88%30.04 "Hg10 mi
4:00 AM61 °FClear.5 mph88%30.04 "Hg10 mi
3:30 AM63 °FClear.1 mph83%30.04 "Hg10 mi
3:00 AM63 °FClear.5 mph83%30.04 "Hg10 mi
2:30 AM64 °FClear.5 mph83%30.04 "Hg10 mi
2:00 AM64 °FClear.6 mph83%30.04 "Hg10 mi
1:30 AM64 °FClear.5 mph83%30.04 "Hg10 mi
1:00 AM66 °FClear.6 mph78%30.04 "Hg10 mi
12:30 AM66 °FPassing clouds.5 mph83%30.04 "HgN/A
12:00 AM68 °FClear.3 mph78%30.04 "Hg10 mi
Weather by CustomWeather, © 2016

See weather overviewHow to use our weather pages